Other Surface Observations
Issued by NWS

Home | Current Version | Previous Version | Text Only | Print | Product List | Glossary On
Versions: 1 2 3 4 5 6 7 8 9 10 11 12 13 14 15 16 17 18 19 20 21 22 23 24 25 26 27 28 29 30 31 32 33 34 35 36 37 38 39 40 41 42 43 44 45 46 47 48 49 50
000
SXUS52 KTAE 062118
OSOTAE
OSOTAE
North Florida/South Alabama/Southwest Georgia Weather Roundup
National Weather Service Tallahassee Florida
500 PM EDT FRI MAY 06 2016

Note: "fair" indicates few or no clouds below 12,000 feet with no
significant weather and/or obstructions to visibility.

!FLZ017-115-028-034-025-062200
...North Florida...

CITY           SKY/WX    TMP DP  RH WIND       PRES   REMARKS
TALLAHASSEE    MOSUNNY   77  42  28 N8        29.88F
APALACHICOLA   SUNNY     75  47  36 VRB6      29.89F
PERRY          MOSUNNY   75  44  32 NW13G20   29.88S
CROSS CITY       N/A     74  48  39 W13G20    29.86F
JACKSONVILLE   MOSUNNY   74  43  32 VRB7      29.83F
$$

!FLZ112-006-005-002-011-062200
...Florida Panhandle...

CITY           SKY/WX    TMP DP  RH WIND       PRES   REMARKS
MARIANNA       SUNNY     76  43  30 NW14      29.89F
BONIFAY        FAIR      75  43  31 N13       29.91F
PANAMA CITY NW FAIR      76  43  30 NW9G21    29.90F
TYNDALL AFB    SUNNY     77  45  31 NW13      29.90F
TYND DRONE APT FAIR      76  45  32 NW8G24    29.90F
DE FUNIAK SPR  FAIR      74  43  33 N15       29.93F
EGLIN AFB      MOSUNNY   77  40  27 N15       29.92F
DESTIN         SUNNY     79  47  32 N13       29.92F
HURLBURT       SUNNY     76  42  29 N14G22    29.92F
CRESTVIEW      SUNNY     77  43  29 N14       29.95F
PENSACOLA      SUNNY     77  42  28 NW12      29.95F
$$

!ALZ063-066-062200
...South Alabama...

CITY           SKY/WX    TMP DP  RH WIND       PRES   REMARKS
DOTHAN         SUNNY     75  41  29 N17G23    29.94F
OZARK CAIRNS   SUNNY     75  43  31 NW13      29.91F
FT RUCKER HELI MOSUNNY   75  42  30 N12       29.91F
RUCKER HELI 3  FAIR      73  42  32 NW13G23   29.94F
RUCKER HELI 2  NOT AVBL
FLORALA APT    MOSUNNY   73  44  35 N12G20    29.95F
ANDALUSIA      SUNNY     78  43  28 N14G20    29.94F
TROY           MOSUNNY   75  45  34 N13G21    29.94F
EUFALA         FAIR      74  44  34 NW10      29.90F
MOBILE         MOSUNNY   75  48  38 NW8       29.98F
$$

!GAZ120>161-062200
...Southwest and South Central Georgia...

CITY           SKY/WX    TMP DP  RH WIND       PRES   REMARKS
THOMASVILLE    FAIR      72  41  33 NW12      29.89S
BAINBRIDGE     SUNNY     77  45  31 N15       29.89F
MOODY AFB      MOSUNNY   73  41  31 NW13G22   29.85F
VALDOSTA       MOSUNNY   74  42  31 NW8       29.86F
MOULTRIE       SUNNY     73  41  31 NW8G16    29.88F
BLAKELY        SUNNY     75  45  33 N10       29.90F
ALBANY         SUNNY     75  40  28 NW14G26   29.89F
TIFTON         FAIR      72  43  35 NW18G24   29.87S
FITZGERALD     CLOUDY    74  42  31 N12G17    29.89S
CORDELE        FAIR      75  41  29 N10       29.88F
AMERICUS       FAIR      70  36  28 N10G16    29.90S
HOMERVILLE     FAIR      73  46  38 NW14      29.86F
$$

!GMZ750-755-770-775-062200
...Coastal and Buoy Obs...

STATION/POSITION TIME  TEMP    WIND        PRES    VSBY  WAVE
                       AIR SEA DIR/SP/G                  HT/PER
                 (UTC) (F)     (DEG/KT/KT) (MB)    (MI)  (FT/S)
KEATON BEACH     2100   68     260/ 14/ 16 1011.3F
CEDAR KEY        2100   67     310/  9/ 12 1012.2F
C TOWER          2100   65     290/ 20/ 23 1013.0F
APALACHICOLA BUO 2050   68 73  300/ 16/ 19 1013.0F         4/ 5
PANAMA CITY BUOY 2050   67 77  330/ 14/ 17 1014.6F         4/ 5
MOBILE BUOY      2100   66 74  330/ 12/ 17 1016.1F
ORANGE BCH AL BU 2050   69 75  270/ 12/ 14 1014.3F         1/ 4
$$




USA.gov is the U.S. government's official web portal to all federal, state and local government web resources and services.